Location: Pasadena, ca
(34.1243°N, 118.1037°W)
Time: 09:40:00
(UTC-08:00)

Tiangong 1 - Visible Passes

Search period start: 19 February 2018 00:00
Search period end: 01 March 2018 00:00
Orbit: 249 x 271 km, 42.8° (Epoch: 19 February)

Date Brightness Start Highest point End Pass type
(mag) Time Alt. Az. Time Alt. Az. Time Alt. Az.
19 Feb 0.1 05:37:26 29° WNW 05:38:24 78° SSW 05:40:41 10° ESE visible
20 Feb 1.0 05:32:15 33° WSW 05:32:39 36° SSW 05:34:48 10° SE visible
21 Feb 2.2 05:26:56 19° SSW 05:26:56 19° SSW 05:28:21 10° SSE visible
27 Feb 2.5 19:10:55 10° SW 19:11:52 20° SSW 19:11:52 20° SSW visible
28 Feb 0.6 19:02:45 10° WSW 19:04:42 61° SW 19:04:42 61° SW visible
